Time,TemperatureF,DewpointF,PressureIn,WindDirection,WindDirectionDegrees,WindSpeedMPH,WindSpeedGustMPH,Humidity,HourlyPrecipIn,Conditions,Clouds,dailyrainin,SoftwareType,DateUTC
2013-05-15 00:03:00,53.8,31.8,30.04,East,90,0.8,2.3,43,0.00,CLR,,0.00,WeatherDisplay:10.37,2013-05-15 07:03:00,
2013-05-15 00:08:00,53.8,31.8,30.04,East,90,0.8,2.3,43,0.00,CLR,,0.00,WeatherDisplay:10.37,2013-05-15 07:08:00,
2013-05-15 00:13:00,52.7,31.9,30.04,ESE,112,1.2,2.3,45,0.00,CLR,,0.00,WeatherDisplay:10.37,2013-05-15 07:13:00,
2013-05-15 00:18:00,52.5,32.3,30.04,East,90,0.8,1.4,46,0.00,CLR,,0.00,WeatherDisplay:10.37,2013-05-15 07:18:00,
2013-05-15 00:23:00,52.3,32.2,30.04,East,90,1.2,1.6,46,0.00,CLR,,0.00,WeatherDisplay:10.37,2013-05-15 07:23:00,
2013-05-15 00:28:00,52.0,32.4,30.05,ENE,68,1.2,2.3,47,0.00,CLR,,0.00,WeatherDisplay:10.37,2013-05-15 07:28:00,
2013-05-15 00:33:00,52.0,33.9,30.05,NNE,22,2.0,3.8,50,0.00,CLR,,0.00,WeatherDisplay:10.37,2013-05-15 07:33:00,
2013-05-15 00:38:00,51.6,34.1,30.05,NNW,338,2.4,2.4,51,0.00,CLR,,0.00,WeatherDisplay:10.37,2013-05-15 07:38:00,
2013-05-15 00:43:00,51.3,33.2,30.05,NNE,22,1.6,2.5,50,0.00,CLR,,0.00,WeatherDisplay:10.37,2013-05-15 07:43:00,
2013-05-15 00:48:00,50.9,32.9,30.06,ENE,68,1.5,1.5,50,0.00,CLR,,0.00,WeatherDisplay:10.37,2013-05-15 07:48:00,
2013-05-15 00:53:00,50.5,33.1,30.06,East,90,1.8,3.5,51,0.00,CLR,,0.00,WeatherDisplay:10.37,2013-05-15 07:53:00,
2013-05-15 00:58:00,50.5,33.1,30.06,East,90,1.6,2.3,51,0.00,CLR,,0.00,WeatherDisplay:10.37,2013-05-15 07:58:00,
2013-05-15 01:03:00,50.4,32.9,30.06,ENE,68,1.0,1.3,51,0.00,CLR,,0.00,WeatherDisplay:10.37,2013-05-15 08:03:00,
2013-05-15 01:08:00,50.4,33.4,30.05,ENE,68,1.2,1.5,52,0.00,CLR,,0.00,WeatherDisplay:10.37,2013-05-15 08:08:00,
2013-05-15 01:13:00,50.5,33.6,30.05,NE,45,1.8,2.6,52,0.00,CLR,,0.00,WeatherDisplay:10.37,2013-05-15 08:13:00,
2013-05-15 01:18:00,50.5,33.6,30.05,NE,45,1.6,0.0,52,0.00,CLR,,0.00,WeatherDisplay:10.37,2013-05-15 08:18:00,
2013-05-15 01:23:00,50.2,33.2,30.05,East,90,0.8,1.3,52,0.00,CLR,,0.00,WeatherDisplay:10.37,2013-05-15 08:23:00,
2013-05-15 01:28:00,50.0,32.6,30.05,East,90,0.6,1.2,51,0.00,CLR,,0.00,WeatherDisplay:10.37,2013-05-15 08:28:00,
2013-05-15 01:33:00,50.0,33.1,30.05,East,90,0.3,0.0,52,0.00,CLR,,0.00,WeatherDisplay:10.37,2013-05-15 08:33:00,
2013-05-15 01:38:00,50.0,33.1,30.05,East,90,0.1,1.2,52,0.00,CLR,,0.00,WeatherDisplay:10.37,2013-05-15 08:38:00,
2013-05-15 01:43:00,49.8,32.4,30.05,ENE,68,0.2,0.0,51,0.00,CLR,,0.00,WeatherDisplay:10.37,2013-05-15 08:43:00,
2013-05-15 01:48:00,49.8,32.9,30.06,ENE,68,0.2,0.0,52,0.00,CLR,,0.00,WeatherDisplay:10.37,2013-05-15 08:48:00,
2013-05-15 01:53:00,49.6,32.7,30.06,ENE,68,0.3,1.2,52,0.00,CLR,,0.00,WeatherDisplay:10.37,2013-05-15 08:53:00,
2013-05-15 01:58:00,49.8,32.9,30.06,ESE,112,0.8,3.5,52,0.00,CLR,,0.00,WeatherDisplay:10.37,2013-05-15 08:58:00,
2013-05-15 02:03:00,49.5,32.6,30.06,ESE,112,1.8,2.3,52,0.00,CLR,,0.00,WeatherDisplay:10.37,2013-05-15 09:03:00,
2013-05-15 02:08:00,49.3,32.4,30.05,SSE,158,2.1,2.5,52,0.00,CLR,,0.00,WeatherDisplay:10.37,2013-05-15 09:08:00,
2013-05-15 02:13:00,49.1,32.2,30.05,ESE,112,2.0,3.5,52,0.00,CLR,,0.00,WeatherDisplay:10.37,2013-05-15 09:13:00,
2013-05-15 02:18:00,49.1,32.7,30.05,SE,135,2.4,3.6,53,0.00,CLR,,0.00,WeatherDisplay:10.37,2013-05-15 09:18:00,
2013-05-15 02:23:00,48.9,32.5,30.05,SE,135,2.6,2.6,53,0.00,CLR,,0.00,WeatherDisplay:10.37,2013-05-15 09:23:00,
2013-05-15 02:28:00,49.1,32.7,30.05,ESE,112,1.8,0.0,53,0.00,CLR,,0.00,WeatherDisplay:10.37,2013-05-15 09:28:00,
2013-05-15 02:33:00,49.1,32.7,30.05,SE,135,0.3,0.0,53,0.00,CLR,,0.00,WeatherDisplay:10.37,2013-05-15 09:33:00,
2013-05-15 02:38:00,48.9,32.5,30.05,SE,135,0.0,0.0,53,0.00,CLR,,0.00,WeatherDisplay:10.37,2013-05-15 09:38:00,
2013-05-15 02:43:00,48.7,32.4,30.05,ESE,112,0.0,0.0,53,0.00,CLR,,0.00,WeatherDisplay:10.37,2013-05-15 09:43:00,
2013-05-15 02:48:00,48.7,32.4,30.06,East,90,0.0,0.0,53,0.00,CLR,,0.00,WeatherDisplay:10.37,2013-05-15 09:48:00,
2013-05-15 02:53:00,48.7,32.8,30.06,SSE,158,0.2,1.2,54,0.00,CLR,,0.00,WeatherDisplay:10.37,2013-05-15 09:53:00,
2013-05-15 02:58:00,48.6,32.7,30.06,SSE,158,0.2,0.0,54,0.00,CLR,,0.00,WeatherDisplay:10.37,2013-05-15 09:58:00,
2013-05-15 03:03:00,48.6,32.7,30.06,SSE,158,0.1,0.0,54,0.00,CLR,,0.00,WeatherDisplay:10.37,2013-05-15 10:03:00,
2013-05-15 03:08:00,48.6,32.7,30.05,SSE,158,0.1,0.0,54,0.00,CLR,,0.00,WeatherDisplay:10.37,2013-05-15 10:08:00,
2013-05-15 03:13:00,48.6,33.1,30.05,SSE,158,0.3,0.0,55,0.00,CLR,,0.00,WeatherDisplay:10.37,2013-05-15 10:13:00,
2013-05-15 03:18:00,48.6,33.1,30.05,SSE,158,0.3,0.0,55,0.00,CLR,,0.00,WeatherDisplay:10.37,2013-05-15 10:18:00,
2013-05-15 03:23:00,48.4,32.9,30.05,SSE,158,0.0,0.0,55,0.00,CLR,,0.00,WeatherDisplay:10.37,2013-05-15 10:23:00,
2013-05-15 03:28:00,48.2,33.2,30.06,SSE,158,0.0,0.0,56,0.00,CLR,,0.00,WeatherDisplay:10.37,2013-05-15 10:28:00,
2013-05-15 03:33:00,48.2,33.2,30.06,SSE,158,0.0,0.0,56,0.00,CLR,,0.00,WeatherDisplay:10.37,2013-05-15 10:33:00,
2013-05-15 03:38:00,48.0,33.1,30.06,SSE,158,0.0,0.0,56,0.00,CLR,,0.00,WeatherDisplay:10.37,2013-05-15 10:38:00,
2013-05-15 03:43:00,48.0,33.1,30.06,ESE,112,0.0,0.0,56,0.00,CLR,,0.00,WeatherDisplay:10.37,2013-05-15 10:43:00,
2013-05-15 03:48:00,47.8,32.9,30.06,ESE,112,0.0,0.0,56,0.00,CLR,,0.00,WeatherDisplay:10.37,2013-05-15 10:48:00,
2013-05-15 03:53:00,47.8,32.9,30.06,ESE,112,0.6,1.3,56,0.00,CLR,,0.00,WeatherDisplay:10.37,2013-05-15 10:53:00,
2013-05-15 03:58:00,47.7,32.7,30.06,ESE,112,0.6,0.0,56,0.00,CLR,,0.00,WeatherDisplay:10.37,2013-05-15 10:58:00,
2013-05-15 04:03:00,47.7,33.2,30.06,East,90,1.0,2.4,57,0.00,CLR,,0.00,WeatherDisplay:10.37,2013-05-15 11:03:00,
2013-05-15 04:08:00,47.3,33.3,30.06,East,90,1.5,1.5,58,0.00,CLR,,0.00,WeatherDisplay:10.37,2013-05-15 11:08:00,
2013-05-15 04:13:00,47.1,33.1,30.06,East,90,1.8,3.8,58,0.00,CLR,,0.00,WeatherDisplay:10.37,2013-05-15 11:13:00,
2013-05-15 04:18:00,46.9,33.3,30.06,East,90,2.1,2.6,59,0.00,CLR,,0.00,WeatherDisplay:10.37,2013-05-15 11:18:00,
2013-05-15 04:24:00,46.6,33.0,30.06,East,90,2.5,4.6,59,0.00,CLR,,0.00,WeatherDisplay:10.37,2013-05-15 11:24:00,
2013-05-15 04:29:00,46.0,32.5,30.06,East,90,2.6,4.6,59,0.00,CLR,,0.00,WeatherDisplay:10.37,2013-05-15 11:29:00,
2013-05-15 04:34:00,45.9,32.3,30.06,ESE,112,2.6,2.9,59,0.00,CLR,,0.00,WeatherDisplay:10.37,2013-05-15 11:34:00,
2013-05-15 04:39:00,45.5,32.4,30.06,East,90,2.4,3.5,60,0.00,CLR,,0.00,WeatherDisplay:10.37,2013-05-15 11:39:00,
2013-05-15 04:45:00,45.0,31.9,30.07,ESE,112,2.0,2.4,60,0.00,CLR,,0.00,WeatherDisplay:10.37,2013-05-15 11:45:00,
2013-05-15 04:50:00,45.1,32.1,30.07,East,90,1.8,2.3,60,0.00,CLR,,0.00,WeatherDisplay:10.37,2013-05-15 11:50:00,
2013-05-15 04:55:00,44.8,32.1,30.07,ENE,68,1.6,3.5,61,0.00,CLR,,0.00,WeatherDisplay:10.37,2013-05-15 11:55:00,
2013-05-15 05:00:00,44.8,32.5,30.07,ENE,68,2.0,2.5,62,0.00,CLR,,0.00,WeatherDisplay:10.37,2013-05-15 12:00:00,
2013-05-15 05:05:00,45.0,32.7,30.07,East,90,2.1,2.3,62,0.00,CLR,,0.00,WeatherDisplay:10.37,2013-05-15 12:05:00,
2013-05-15 05:10:00,45.1,32.9,30.07,East,90,1.4,0.0,62,0.00,CLR,,0.00,WeatherDisplay:10.37,2013-05-15 12:10:00,
2013-05-15 05:15:00,45.0,32.7,30.07,East,90,1.4,2.5,62,0.00,CLR,,0.00,WeatherDisplay:10.37,2013-05-15 12:15:00,
2013-05-15 05:20:00,45.0,32.7,30.07,East,90,1.6,2.4,62,0.00,CLR,,0.00,WeatherDisplay:10.37,2013-05-15 12:20:00,
2013-05-15 05:25:00,45.0,32.7,30.07,ENE,68,1.2,2.3,62,0.00,CLR,,0.00,WeatherDisplay:10.37,2013-05-15 12:25:00,
2013-05-15 05:30:00,45.0,32.7,30.07,East,90,1.4,2.3,62,0.00,CLR,,0.00,WeatherDisplay:10.37,2013-05-15 12:30:00,
2013-05-15 05:35:00,45.0,32.7,30.07,ENE,68,1.4,2.3,62,0.00,CLR,,0.00,WeatherDisplay:10.37,2013-05-15 12:35:00,
2013-05-15 05:40:00,45.0,32.7,30.07,East,90,1.3,1.6,62,0.00,CLR,,0.00,WeatherDisplay:10.37,2013-05-15 12:40:00,
2013-05-15 05:45:00,45.0,32.7,30.07,ENE,68,1.6,2.3,62,0.00,CLR,,0.00,WeatherDisplay:10.37,2013-05-15 12:45:00,
2013-05-15 05:50:00,45.0,32.7,30.07,ENE,68,1.2,0.0,62,0.00,CLR,,0.00,WeatherDisplay:10.37,2013-05-15 12:50:00,
2013-05-15 05:55:00,45.0,32.7,30.07,ENE,68,0.8,2.3,62,0.00,CLR,,0.00,WeatherDisplay:10.37,2013-05-15 12:55:00,
2013-05-15 06:00:00,45.2,33.3,30.07,East,80,1.0,3.0,63,0.00,CLR,CLR,0.00,WeatherDisplay:10.37,2013-05-15 13:00:00,
2013-05-15 06:06:00,45.3,33.5,30.10,East,90,1.7,2.3,63,0.00,CLR,,0.00,WeatherDisplay:10.37,2013-05-15 13:06:00,
2013-05-15 06:11:00,45.3,33.5,30.10,East,90,1.7,2.3,63,0.00,CLR,,0.00,WeatherDisplay:10.37,2013-05-15 13:11:00,
2013-05-15 06:16:00,45.3,33.5,30.10,ESE,112,2.0,2.3,63,0.00,CLR,,0.00,WeatherDisplay:10.37,2013-05-15 13:16:00,
2013-05-15 06:21:00,45.3,33.5,30.10,East,90,1.4,2.3,63,0.00,CLR,,0.00,WeatherDisplay:10.37,2013-05-15 13:21:00,
2013-05-15 06:26:00,45.5,34.0,30.10,East,90,1.6,3.5,64,0.00,CLR,,0.00,WeatherDisplay:10.37,2013-05-15 13:26:00,
2013-05-15 06:31:00,45.7,33.8,30.10,East,90,2.4,4.6,63,0.00,CLR,,0.00,WeatherDisplay:10.37,2013-05-15 13:31:00,
2013-05-15 06:36:00,45.9,34.0,30.10,East,90,3.0,4.6,63,0.00,CLR,,0.00,WeatherDisplay:10.37,2013-05-15 13:36:00,
2013-05-15 06:41:00,46.2,34.3,30.10,East,90,2.9,4.6,63,0.00,CLR,,0.00,WeatherDisplay:10.37,2013-05-15 13:41:00,
2013-05-15 06:46:00,46.2,34.3,30.11,East,90,2.1,2.3,63,0.00,CLR,,0.00,WeatherDisplay:10.37,2013-05-15 13:46:00,
2013-05-15 06:51:00,46.4,34.1,30.11,North,0,1.5,2.0,62,0.00,CLR,,0.00,WeatherDisplay:10.37,2013-05-15 13:51:00,
2013-05-15 06:56:00,46.4,34.1,30.11,NNE,22,2.3,4.6,62,0.00,CLR,,0.00,WeatherDisplay:10.37,2013-05-15 13:56:00,
2013-05-15 07:01:00,46.6,34.2,30.11,ESE,112,3.0,3.5,62,0.00,CLR,,0.00,WeatherDisplay:10.37,2013-05-15 14:01:00,
2013-05-15 07:06:00,46.9,34.6,30.10,ENE,68,2.5,3.5,62,0.00,CLR,,0.00,WeatherDisplay:10.37,2013-05-15 14:06:00,
2013-05-15 07:11:00,46.9,34.6,30.10,ESE,112,2.0,2.3,62,0.00,CLR,,0.00,WeatherDisplay:10.37,2013-05-15 14:11:00,
2013-05-15 07:16:00,47.3,34.9,30.10,ESE,112,1.6,2.6,62,0.00,CLR,,0.00,WeatherDisplay:10.37,2013-05-15 14:16:00,
2013-05-15 07:22:00,47.8,35.4,30.10,ESE,112,1.5,3.5,62,0.00,CLR,,0.00,WeatherDisplay:10.37,2013-05-15 14:22:00,
2013-05-15 07:27:00,48.6,35.7,30.10,ESE,112,1.4,1.4,61,0.00,CLR,,0.00,WeatherDisplay:10.37,2013-05-15 14:27:00,
2013-05-15 07:32:00,49.3,36.4,30.10,ESE,112,0.8,2.5,61,0.00,CLR,,0.00,WeatherDisplay:10.37,2013-05-15 14:32:00,
2013-05-15 07:37:00,50.9,37.9,30.10,ESE,112,1.2,2.3,61,0.00,CLR,,0.00,WeatherDisplay:10.37,2013-05-15 14:37:00,
2013-05-15 07:42:00,51.8,38.3,30.10,East,90,1.5,2.3,60,0.00,CLR,,0.00,WeatherDisplay:10.37,2013-05-15 14:42:00,
2013-05-15 07:48:00,52.3,38.4,30.09,SSE,158,1.3,2.3,59,0.00,CLR,,0.00,WeatherDisplay:10.37,2013-05-15 14:48:00,
2013-05-15 07:53:00,53.2,38.8,30.09,ESE,112,1.5,2.6,58,0.00,CLR,,0.00,WeatherDisplay:10.37,2013-05-15 14:53:00,
2013-05-15 07:59:00,54.3,39.4,30.09,ESE,112,1.8,3.5,57,0.00,CLR,,0.00,WeatherDisplay:10.37,2013-05-15 14:59:00,
2013-05-15 08:04:00,54.9,39.5,30.09,NNE,22,2.0,3.5,56,0.00,CLR,,0.00,WeatherDisplay:10.37,2013-05-15 15:04:00,
2013-05-15 08:09:00,55.6,39.7,30.09,North,0,2.3,2.3,55,0.00,CLR,,0.00,WeatherDisplay:10.37,2013-05-15 15:09:00,
2013-05-15 08:14:00,55.6,39.7,30.09,NNE,22,2.5,3.5,55,0.00,CLR,,0.00,WeatherDisplay:10.37,2013-05-15 15:14:00,
2013-05-15 08:19:00,55.6,39.7,30.09,East,90,2.1,2.3,55,0.00,CLR,,0.00,WeatherDisplay:10.37,2013-05-15 15:19:00,
2013-05-15 08:25:00,55.9,39.5,30.09,ESE,112,1.6,1.6,54,0.00,CLR,,0.00,WeatherDisplay:10.37,2013-05-15 15:25:00,
2013-05-15 08:30:00,55.9,39.5,30.09,SE,135,1.5,2.3,54,0.00,CLR,,0.00,WeatherDisplay:10.37,2013-05-15 15:30:00,
2013-05-15 08:35:00,56.3,39.4,30.09,NNE,22,1.8,3.5,53,0.00,CLR,,0.00,WeatherDisplay:10.37,2013-05-15 15:35:00,
2013-05-15 08:40:00,56.1,39.2,30.09,ENE,68,2.3,3.9,53,0.00,CLR,,0.00,WeatherDisplay:10.37,2013-05-15 15:40:00,
2013-05-15 08:45:00,56.1,39.2,30.09,East,90,2.4,2.4,53,0.00,CLR,,0.00,WeatherDisplay:10.37,2013-05-15 15:45:00,
2013-05-15 08:50:00,56.3,39.4,30.09,East,90,1.7,1.7,53,0.00,CLR,,0.00,WeatherDisplay:10.37,2013-05-15 15:50:00,
2013-05-15 08:55:00,56.5,39.5,30.09,ENE,68,0.6,1.5,53,0.00,CLR,,0.00,WeatherDisplay:10.37,2013-05-15 15:55:00,
2013-05-15 09:00:00,56.7,39.2,30.09,East,88,1.0,3.0,52,0.00,CLR,CLR,0.00,WeatherDisplay:10.37,2013-05-15 16:00:00,
2013-05-15 09:06:00,57.0,39.6,30.08,ENE,68,1.3,2.3,52,0.00,CLR,,0.00,WeatherDisplay:10.37,2013-05-15 16:06:00,
2013-05-15 09:11:00,57.0,39.1,30.08,NE,45,0.8,1.2,51,0.00,CLR,,0.00,WeatherDisplay:10.37,2013-05-15 16:11:00,
2013-05-15 09:16:00,57.2,39.2,30.08,NE,45,0.6,0.0,51,0.00,CLR,,0.00,WeatherDisplay:10.37,2013-05-15 16:16:00,
2013-05-15 09:21:00,57.6,39.0,30.08,NE,45,0.0,0.0,50,0.00,CLR,,0.00,WeatherDisplay:10.37,2013-05-15 16:21:00,
2013-05-15 09:26:00,57.9,39.9,30.08,ENE,68,0.0,0.0,51,0.00,CLR,,0.00,WeatherDisplay:10.37,2013-05-15 16:26:00,
2013-05-15 09:31:00,58.5,40.4,30.08,NNE,22,0.0,0.0,51,0.00,CLR,,0.00,WeatherDisplay:10.37,2013-05-15 16:31:00,
2013-05-15 09:37:00,59.2,40.0,30.08,NNW,338,0.5,2.6,49,0.00,CLR,,0.00,WeatherDisplay:10.37,2013-05-15 16:37:00,
2013-05-15 09:42:00,59.0,39.9,30.08,ENE,68,0.8,2.3,49,0.00,CLR,,0.00,WeatherDisplay:10.37,2013-05-15 16:42:00,
2013-05-15 09:47:00,59.5,40.3,30.07,East,90,0.6,1.2,49,0.00,CLR,,0.00,WeatherDisplay:10.37,2013-05-15 16:47:00,
2013-05-15 09:53:00,60.6,41.3,30.07,ESE,112,1.0,2.6,49,0.00,CLR,,0.00,WeatherDisplay:10.37,2013-05-15 16:53:00,
2013-05-15 09:58:00,61.2,41.3,30.07,ESE,112,0.8,0.0,48,0.00,CLR,,0.00,WeatherDisplay:10.37,2013-05-15 16:58:00,
2013-05-15 10:03:00,61.5,40.0,30.07,ENE,68,0.9,4.6,45,0.00,CLR,,0.00,WeatherDisplay:10.37,2013-05-15 17:03:00,
2013-05-15 10:08:00,61.7,39.6,30.07,ENE,68,1.2,0.0,44,0.00,CLR,,0.00,WeatherDisplay:10.37,2013-05-15 17:08:00,
2013-05-15 10:14:00,61.9,39.7,30.07,SE,135,1.4,2.8,44,0.00,CLR,,0.00,WeatherDisplay:10.37,2013-05-15 17:14:00,
2013-05-15 10:19:00,62.6,42.6,30.07,SSE,158,1.7,3.5,48,0.00,CLR,,0.00,WeatherDisplay:10.37,2013-05-15 17:19:00,
2013-05-15 10:24:00,62.8,43.3,30.07,East,90,2.3,4.6,49,0.00,CLR,,0.00,WeatherDisplay:10.37,2013-05-15 17:24:00,
2013-05-15 10:29:00,62.1,43.2,30.07,South,180,2.6,3.5,50,0.00,CLR,,0.00,WeatherDisplay:10.37,2013-05-15 17:29:00,
2013-05-15 10:34:00,61.7,42.9,30.07,South,180,1.8,2.3,50,0.00,CLR,,0.00,WeatherDisplay:10.37,2013-05-15 17:34:00,
2013-05-15 10:39:00,61.2,42.9,30.07,SE,135,1.0,2.3,51,0.00,CLR,,0.00,WeatherDisplay:10.37,2013-05-15 17:39:00,
2013-05-15 10:44:00,61.3,43.0,30.07,East,90,1.2,4.6,51,0.00,CLR,,0.00,WeatherDisplay:10.37,2013-05-15 17:44:00,
2013-05-15 10:50:00,61.7,42.3,30.06,SSE,158,1.6,3.5,49,0.00,CLR,,0.00,WeatherDisplay:10.37,2013-05-15 17:50:00,
2013-05-15 10:55:00,62.2,42.8,30.06,SSE,158,1.2,1.2,49,0.00,CLR,,0.00,WeatherDisplay:10.37,2013-05-15 17:55:00,
2013-05-15 11:00:00,62.8,42.2,30.06,ENE,68,1.2,4.7,47,0.00,CLR,,0.00,WeatherDisplay:10.37,2013-05-15 18:00:00,
2013-05-15 11:06:00,63.0,41.3,30.06,East,90,1.8,2.4,45,0.00,CLR,,0.00,WeatherDisplay:10.37,2013-05-15 18:06:00,
2013-05-15 11:11:00,63.1,41.4,30.06,ESE,112,1.2,2.3,45,0.00,CLR,,0.00,WeatherDisplay:10.37,2013-05-15 18:11:00,
2013-05-15 11:16:00,63.7,41.9,30.06,SE,135,1.6,2.4,45,0.00,CLR,,0.00,WeatherDisplay:10.37,2013-05-15 18:16:00,
2013-05-15 11:21:00,63.9,40.3,30.06,ENE,68,1.8,2.4,42,0.00,CLR,,0.00,WeatherDisplay:10.37,2013-05-15 18:21:00,
2013-05-15 11:26:00,64.2,40.6,30.04,NNE,22,1.7,4.6,42,0.00,CLR,,0.00,WeatherDisplay:10.37,2013-05-15 18:26:00,
2013-05-15 11:31:00,64.0,37.9,30.04,NNE,22,2.9,4.6,38,0.00,CLR,,0.00,WeatherDisplay:10.37,2013-05-15 18:31:00,
2013-05-15 11:36:00,63.9,37.7,30.04,NE,45,2.8,4.6,38,0.00,CLR,,0.00,WeatherDisplay:10.37,2013-05-15 18:36:00,
2013-05-15 11:41:00,63.9,37.7,30.04,North,0,2.4,3.5,38,0.00,CLR,,0.00,WeatherDisplay:10.37,2013-05-15 18:41:00,
2013-05-15 11:46:00,64.0,39.2,30.04,East,90,2.0,0.0,40,0.00,CLR,,0.00,WeatherDisplay:10.37,2013-05-15 18:46:00,
2013-05-15 11:51:00,64.2,38.1,30.04,ENE,68,1.5,3.5,38,0.00,CLR,,0.00,WeatherDisplay:10.37,2013-05-15 18:51:00,
2013-05-15 11:57:00,64.2,38.7,30.04,North,0,2.8,4.6,39,0.00,CLR,,0.00,WeatherDisplay:10.37,2013-05-15 18:57:00,
2013-05-15 12:02:00,64.6,38.4,30.04,North,0,3.1,4.6,38,0.00,CLR,,0.00,WeatherDisplay:10.37,2013-05-15 19:02:00,
2013-05-15 12:08:00,64.4,38.2,30.03,NNE,22,3.0,3.5,38,0.00,CLR,,0.00,WeatherDisplay:10.37,2013-05-15 19:08:00,
2013-05-15 12:13:00,64.8,38.5,30.03,NE,45,2.4,3.5,38,0.00,BKN,,0.00,WeatherDisplay:10.37,2013-05-15 19:13:00,
2013-05-15 12:18:00,64.9,38.0,30.03,North,0,2.3,2.9,37,0.00,BKN,,0.00,WeatherDisplay:10.37,2013-05-15 19:18:00,
2013-05-15 12:23:00,65.1,38.9,30.03,East,90,2.0,2.3,38,0.00,BKN,,0.00,WeatherDisplay:10.37,2013-05-15 19:23:00,
2013-05-15 12:28:00,65.3,38.3,30.02,NNE,22,2.0,2.6,37,0.00,BKN,,0.00,WeatherDisplay:10.37,2013-05-15 19:28:00,
2013-05-15 12:33:00,65.7,38.7,30.02,NNE,22,2.0,3.5,37,0.00,BKN,,0.00,WeatherDisplay:10.37,2013-05-15 19:33:00,
2013-05-15 12:38:00,65.8,38.8,30.02,North,0,2.3,3.5,37,0.00,BKN,,0.00,WeatherDisplay:10.37,2013-05-15 19:38:00,
2013-05-15 12:44:00,66.2,39.1,30.02,NNW,338,2.0,3.9,37,0.00,BKN,,0.00,WeatherDisplay:10.37,2013-05-15 19:44:00,
2013-05-15 12:49:00,66.4,39.3,30.01,WNW,292,2.0,2.3,37,0.00,BKN,,0.00,WeatherDisplay:10.37,2013-05-15 19:49:00,
2013-05-15 12:54:00,66.6,39.5,30.01,West,270,2.0,2.3,37,0.00,BKN,,0.00,WeatherDisplay:10.37,2013-05-15 19:54:00,
2013-05-15 12:59:00,67.3,41.5,30.01,SW,225,1.2,2.3,39,0.00,BKN,,0.00,WeatherDisplay:10.37,2013-05-15 19:59:00,
2013-05-15 13:05:00,67.3,40.1,30.01,South,180,1.2,2.3,37,0.00,BKN,,0.00,WeatherDisplay:10.37,2013-05-15 20:05:00,
2013-05-15 13:10:00,67.5,40.3,30.01,East,90,1.2,2.3,37,0.00,BKN,,0.00,WeatherDisplay:10.37,2013-05-15 20:10:00,
2013-05-15 13:15:00,68.2,41.6,30.01,ENE,68,1.7,4.6,38,0.00,FEW,,0.00,WeatherDisplay:10.37,2013-05-15 20:15:00,
2013-05-15 13:20:00,68.9,40.8,30.01,East,90,2.3,3.5,36,0.00,FEW,,0.00,WeatherDisplay:10.37,2013-05-15 20:20:00,
2013-05-15 13:25:00,69.3,41.9,30.00,East,90,3.0,4.9,37,0.00,FEW,,0.00,WeatherDisplay:10.37,2013-05-15 20:25:00,
2013-05-15 13:30:00,69.3,40.4,30.00,ENE,68,2.6,2.6,35,0.00,FEW,,0.00,WeatherDisplay:10.37,2013-05-15 20:30:00,
2013-05-15 13:36:00,69.8,39.4,30.00,NE,45,2.8,4.6,33,0.00,FEW,,0.00,WeatherDisplay:10.37,2013-05-15 20:36:00,
2013-05-15 13:41:00,69.8,40.2,30.00,East,90,2.6,4.6,34,0.00,FEW,,0.00,WeatherDisplay:10.37,2013-05-15 20:41:00,
2013-05-15 13:46:00,70.3,39.9,29.99,NNE,22,2.8,6.9,33,0.00,FEW,,0.00,WeatherDisplay:10.37,2013-05-15 20:46:00,
2013-05-15 13:51:00,70.7,40.2,29.99,ENE,68,3.1,4.6,33,0.00,FEW,,0.00,WeatherDisplay:10.37,2013-05-15 20:51:00,
2013-05-15 13:56:00,70.7,38.6,29.99,NNE,22,3.8,7.0,31,0.00,FEW,,0.00,WeatherDisplay:10.37,2013-05-15 20:56:00,
2013-05-15 14:02:00,70.9,39.5,29.99,NNW,338,4.3,5.8,32,0.00,CLR,,0.00,WeatherDisplay:10.37,2013-05-15 21:02:00,
2013-05-15 14:07:00,70.7,38.6,29.99,NE,45,4.4,5.8,31,0.00,CLR,,0.00,WeatherDisplay:10.37,2013-05-15 21:07:00,
2013-05-15 14:12:00,70.7,39.4,29.99,East,90,4.3,5.8,32,0.00,CLR,,0.00,WeatherDisplay:10.37,2013-05-15 21:12:00,
2013-05-15 14:17:00,70.9,39.5,29.99,ENE,68,2.9,3.8,32,0.00,CLR,,0.00,WeatherDisplay:10.37,2013-05-15 21:17:00,
2013-05-15 14:22:00,70.9,39.5,29.99,ENE,68,2.5,6.9,32,0.00,CLR,,0.00,WeatherDisplay:10.37,2013-05-15 21:22:00,
2013-05-15 14:27:00,71.1,38.9,29.98,NNW,338,3.5,3.7,31,0.00,CLR,,0.00,WeatherDisplay:10.37,2013-05-15 21:27:00,
2013-05-15 14:32:00,70.9,37.9,29.98,North,0,3.6,4.6,30,0.00,CLR,,0.00,WeatherDisplay:10.37,2013-05-15 21:32:00,
2013-05-15 14:38:00,70.7,37.7,29.98,NNE,22,3.0,4.6,30,0.00,CLR,,0.00,WeatherDisplay:10.37,2013-05-15 21:38:00,
2013-05-15 14:43:00,71.1,38.0,29.98,ENE,68,3.0,5.2,30,0.00,CLR,,0.00,WeatherDisplay:10.37,2013-05-15 21:43:00,
2013-05-15 14:48:00,71.1,37.2,29.97,NW,315,3.8,5.8,29,0.00,CLR,,0.00,WeatherDisplay:10.37,2013-05-15 21:48:00,
2013-05-15 14:53:00,71.1,37.2,29.97,NNE,22,3.8,4.6,29,0.00,CLR,,0.00,WeatherDisplay:10.37,2013-05-15 21:53:00,
2013-05-15 14:58:00,70.5,34.9,29.97,NW,315,3.2,4.6,27,0.00,CLR,,0.00,WeatherDisplay:10.37,2013-05-15 21:58:00,
2013-05-15 15:03:00,70.3,35.7,29.97,ENE,68,3.0,3.0,28,0.00,CLR,,0.00,WeatherDisplay:10.37,2013-05-15 22:03:00,
2013-05-15 15:08:00,70.7,37.7,29.96,ENE,68,3.5,3.9,30,0.00,CLR,,0.00,WeatherDisplay:10.37,2013-05-15 22:08:00,
2013-05-15 15:14:00,71.4,38.4,29.96,North,0,3.8,4.6,30,0.00,CLR,,0.00,WeatherDisplay:10.37,2013-05-15 22:14:00,
2013-05-15 15:19:00,71.2,38.2,29.96,North,0,4.1,4.1,30,0.00,CLR,,0.00,WeatherDisplay:10.37,2013-05-15 22:19:00,
2013-05-15 15:24:00,71.8,38.7,29.96,NE,45,3.8,4.6,30,0.00,CLR,,0.00,WeatherDisplay:10.37,2013-05-15 22:24:00,
2013-05-15 15:30:00,72.0,37.1,29.96,North,0,4.4,5.8,28,0.00,CLR,,0.00,WeatherDisplay:10.37,2013-05-15 22:30:00,
2013-05-15 15:35:00,71.8,38.7,29.96,West,270,4.1,4.1,30,0.00,CLR,,0.00,WeatherDisplay:10.37,2013-05-15 22:35:00,
2013-05-15 15:40:00,72.1,39.0,29.96,West,270,2.6,2.6,30,0.00,CLR,,0.00,WeatherDisplay:10.37,2013-05-15 22:40:00,
2013-05-15 15:45:00,72.3,39.1,29.95,North,0,2.2,3.5,30,0.00,CLR,,0.00,WeatherDisplay:10.37,2013-05-15 22:45:00,
2013-05-15 15:50:00,72.1,38.1,29.95,North,0,2.5,2.6,29,0.00,CLR,,0.00,WeatherDisplay:10.37,2013-05-15 22:50:00,
2013-05-15 15:56:00,71.8,38.7,29.95,NW,315,2.1,4.6,30,0.00,CLR,,0.00,WeatherDisplay:10.37,2013-05-15 22:56:00,
2013-05-15 16:01:00,71.6,37.6,29.95,NW,315,2.6,4.6,29,0.00,CLR,,0.00,WeatherDisplay:10.37,2013-05-15 23:01:00,
2013-05-15 16:06:00,71.2,37.3,29.95,NNE,22,3.1,3.5,29,0.00,CLR,,0.00,WeatherDisplay:10.37,2013-05-15 23:06:00,
2013-05-15 16:11:00,71.4,37.5,29.95,NNW,338,2.9,3.6,29,0.00,CLR,,0.00,WeatherDisplay:10.37,2013-05-15 23:11:00,
2013-05-15 16:17:00,71.4,37.5,29.95,North,0,3.5,7.2,29,0.00,CLR,,0.00,WeatherDisplay:10.37,2013-05-15 23:17:00,
2013-05-15 16:22:00,71.6,37.6,29.95,NNE,22,3.7,5.8,29,0.00,CLR,,0.00,WeatherDisplay:10.37,2013-05-15 23:22:00,
2013-05-15 16:27:00,72.1,38.1,29.94,ENE,68,3.5,4.6,29,0.00,CLR,,0.00,WeatherDisplay:10.37,2013-05-15 23:27:00,
2013-05-15 16:32:00,72.3,39.1,29.94,ENE,68,3.5,5.8,30,0.00,CLR,,0.00,WeatherDisplay:10.37,2013-05-15 23:32:00,
2013-05-15 16:37:00,72.1,38.1,29.94,NNW,338,2.6,4.6,29,0.00,CLR,,0.00,WeatherDisplay:10.37,2013-05-15 23:37:00,
2013-05-15 16:42:00,71.8,36.9,29.94,NW,315,2.4,3.5,28,0.00,CLR,,0.00,WeatherDisplay:10.37,2013-05-15 23:42:00,
2013-05-15 16:47:00,71.4,37.5,29.93,North,0,2.3,4.6,29,0.00,CLR,,0.00,WeatherDisplay:10.37,2013-05-15 23:47:00,
2013-05-15 16:52:00,71.2,37.3,29.93,NE,45,2.0,4.6,29,0.00,CLR,,0.00,WeatherDisplay:10.37,2013-05-15 23:52:00,
2013-05-15 16:57:00,71.1,38.0,29.93,NE,45,2.1,2.6,30,0.00,CLR,,0.00,WeatherDisplay:10.37,2013-05-15 23:57:00,
2013-05-15 17:03:00,71.1,38.0,29.93,West,270,2.2,4.6,30,0.00,SCT,,0.00,WeatherDisplay:10.37,2013-05-16 00:03:00,
2013-05-15 17:08:00,71.1,38.0,29.93,NNW,338,2.6,5.8,30,0.00,SCT,,0.00,WeatherDisplay:10.37,2013-05-16 00:08:00,
2013-05-15 17:13:00,70.5,37.6,29.93,WNW,292,3.5,6.9,30,0.00,SCT,,0.00,WeatherDisplay:10.37,2013-05-16 00:13:00,
2013-05-15 17:18:00,70.5,37.6,29.93,NW,315,3.0,6.0,30,0.00,SCT,,0.00,WeatherDisplay:10.37,2013-05-16 00:18:00,
2013-05-15 17:23:00,70.3,36.6,29.93,NW,315,3.5,4.8,29,0.00,SCT,,0.00,WeatherDisplay:10.37,2013-05-16 00:23:00,
2013-05-15 17:28:00,70.2,37.3,29.93,North,0,3.3,4.6,30,0.00,SCT,,0.00,WeatherDisplay:10.37,2013-05-16 00:28:00,
2013-05-15 17:33:00,70.2,37.3,29.93,NW,315,2.6,3.5,30,0.00,SCT,,0.00,WeatherDisplay:10.37,2013-05-16 00:33:00,
2013-05-15 17:38:00,70.2,37.3,29.93,NNW,338,2.8,3.8,30,0.00,SCT,,0.00,WeatherDisplay:10.37,2013-05-16 00:38:00,
2013-05-15 17:43:00,70.3,38.3,29.93,NNW,338,3.5,6.9,31,0.00,SCT,,0.00,WeatherDisplay:10.37,2013-05-16 00:43:00,
2013-05-15 17:49:00,70.2,38.9,29.92,NNW,338,4.5,9.3,32,0.00,SCT,,0.00,WeatherDisplay:10.37,2013-05-16 00:49:00,
2013-05-15 17:54:00,70.0,38.8,29.92,North,0,5.6,10.4,32,0.00,SCT,,0.00,WeatherDisplay:10.37,2013-05-16 00:54:00,
2013-05-15 17:59:00,70.0,39.5,29.92,NNW,338,5.9,6.9,33,0.00,SCT,,0.00,WeatherDisplay:10.37,2013-05-16 00:59:00,
2013-05-15 18:04:00,69.8,39.4,29.92,NW,315,5.6,6.9,33,0.00,OVC,,0.00,WeatherDisplay:10.37,2013-05-16 01:04:00,
2013-05-15 18:10:00,69.6,38.4,29.92,NNW,338,5.5,8.1,32,0.00,OVC,,0.00,WeatherDisplay:10.37,2013-05-16 01:10:00,
2013-05-15 18:16:00,69.4,39.1,29.92,WNW,292,5.8,8.1,33,0.00,OVC,,0.00,WeatherDisplay:10.37,2013-05-16 01:16:00,
2013-05-15 18:21:00,69.4,39.1,29.92,North,0,5.6,9.2,33,0.00,OVC,,0.00,WeatherDisplay:10.37,2013-05-16 01:21:00,
2013-05-15 18:26:00,69.3,39.7,29.91,NNW,338,5.5,9.5,34,0.00,OVC,,0.00,WeatherDisplay:10.37,2013-05-16 01:26:00,
2013-05-15 18:32:00,69.3,39.7,29.91,NW,315,6.3,7.5,34,0.00,OVC,,0.00,WeatherDisplay:10.37,2013-05-16 01:32:00,
2013-05-15 18:37:00,68.9,39.4,29.91,NNW,338,6.0,9.2,34,0.00,OVC,,0.00,WeatherDisplay:10.37,2013-05-16 01:37:00,
2013-05-15 18:42:00,68.9,40.1,29.91,NW,315,5.8,7.2,35,0.00,OVC,,0.00,WeatherDisplay:10.37,2013-05-16 01:42:00,
2013-05-15 18:47:00,68.7,39.2,29.92,West,270,5.6,5.8,34,0.00,OVC,,0.00,WeatherDisplay:10.37,2013-05-16 01:47:00,
2013-05-15 18:52:00,68.5,39.0,29.92,WSW,248,5.5,6.9,34,0.00,OVC,,0.00,WeatherDisplay:10.37,2013-05-16 01:52:00,
2013-05-15 18:57:00,68.2,38.7,29.92,WNW,292,5.8,6.9,34,0.00,OVC,,0.00,WeatherDisplay:10.37,2013-05-16 01:57:00,
2013-05-15 19:02:00,68.0,38.6,29.92,West,270,5.2,6.2,34,0.00,OVC,,0.00,WeatherDisplay:10.37,2013-05-16 02:02:00,
2013-05-15 19:07:00,68.0,38.6,29.91,NW,315,4.9,6.9,34,0.00,OVC,,0.00,WeatherDisplay:10.37,2013-05-16 02:07:00,
2013-05-15 19:12:00,67.8,38.4,29.91,NW,315,3.7,3.7,34,0.00,OVC,,0.00,WeatherDisplay:10.37,2013-05-16 02:12:00,
2013-05-15 19:17:00,67.5,38.1,29.91,NNW,338,3.5,4.6,34,0.00,OVC,,0.00,WeatherDisplay:10.37,2013-05-16 02:17:00,
2013-05-15 19:23:00,67.5,38.8,29.91,NW,315,3.6,4.9,35,0.00,OVC,,0.00,WeatherDisplay:10.37,2013-05-16 02:23:00,
2013-05-15 19:28:00,67.1,38.5,29.91,West,270,3.0,3.0,35,0.00,OVC,,0.00,WeatherDisplay:10.37,2013-05-16 02:28:00,
2013-05-15 19:34:00,66.9,39.1,29.91,West,270,3.1,5.8,36,0.00,OVC,,0.00,WeatherDisplay:10.37,2013-05-16 02:34:00,
2013-05-15 19:39:00,66.7,41.0,29.91,West,270,4.8,9.2,39,0.00,OVC,,0.00,WeatherDisplay:10.37,2013-05-16 02:39:00,
2013-05-15 19:44:00,66.6,41.5,29.91,West,270,5.6,8.5,40,0.00,OVC,,0.00,WeatherDisplay:10.37,2013-05-16 02:44:00,
2013-05-15 19:49:00,65.8,42.1,29.93,West,270,6.2,7.1,42,0.00,OVC,,0.00,WeatherDisplay:10.37,2013-05-16 02:49:00,
2013-05-15 19:54:00,65.3,41.6,29.93,WSW,248,5.6,6.9,42,0.00,OVC,,0.00,WeatherDisplay:10.37,2013-05-16 02:54:00,
2013-05-15 19:59:00,65.1,42.1,29.93,West,270,4.3,6.9,43,0.00,OVC,,0.00,WeatherDisplay:10.37,2013-05-16 02:59:00,
2013-05-15 20:04:00,64.6,41.6,29.93,West,270,4.3,6.9,43,0.00,-RA,,0.00,WeatherDisplay:10.37,2013-05-16 03:04:00,
2013-05-15 20:09:00,64.4,42.0,29.91,West,270,4.0,4.6,44,0.00,-RA,,0.00,WeatherDisplay:10.37,2013-05-16 03:09:00,
2013-05-15 20:14:00,64.2,41.8,29.91,WSW,248,2.9,3.5,44,0.00,-RA,,0.00,WeatherDisplay:10.37,2013-05-16 03:14:00,
2013-05-15 20:19:00,63.9,41.5,29.91,SW,225,1.7,3.6,44,0.00,-RA,,0.00,WeatherDisplay:10.37,2013-05-16 03:19:00,
2013-05-15 20:24:00,63.7,41.9,29.91,WSW,248,2.4,4.6,45,0.00,-RA,,0.00,WeatherDisplay:10.37,2013-05-16 03:24:00,
2013-05-15 20:29:00,63.7,42.5,29.92,West,270,4.0,5.8,46,0.00,-RA,,0.00,WeatherDisplay:10.37,2013-05-16 03:29:00,
2013-05-15 20:34:00,63.5,42.3,29.92,SW,225,4.3,5.8,46,0.00,-RA,,0.00,WeatherDisplay:10.37,2013-05-16 03:34:00,
2013-05-15 20:39:00,63.5,42.9,29.92,SW,225,4.3,5.8,47,0.00,-RA,,0.00,WeatherDisplay:10.37,2013-05-16 03:39:00,
2013-05-15 20:44:00,63.1,43.1,29.92,WSW,248,4.5,7.2,48,0.00,-RA,,0.00,WeatherDisplay:10.37,2013-05-16 03:44:00,
2013-05-15 20:49:00,62.8,42.8,29.92,West,270,5.3,6.9,48,0.00,-RA,,0.00,WeatherDisplay:10.37,2013-05-16 03:49:00,
2013-05-15 20:54:00,62.8,43.3,29.92,WSW,248,5.5,9.2,49,0.00,-RA,,0.00,WeatherDisplay:10.37,2013-05-16 03:54:00,
2013-05-15 20:59:00,62.6,43.2,29.92,WSW,248,4.7,6.9,49,0.00,-RA,,0.00,WeatherDisplay:10.37,2013-05-16 03:59:00,
2013-05-15 21:01:00,62.4,43.0,29.92,SW,225,4.6,8.1,49,0.00,-RA,,0.00,WeatherDisplay:10.37,2013-05-16 04:01:00,
2013-05-15 21:02:00,62.4,43.0,29.92,SW,225,4.6,8.1,49,0.00,BKN,,0.00,WeatherDisplay:10.37,2013-05-16 04:02:00,
2013-05-15 21:04:00,62.4,43.0,29.92,SW,225,4.8,6.9,49,0.00,BKN,,0.00,WeatherDisplay:10.37,2013-05-16 04:04:00,
2013-05-15 21:09:00,62.2,43.4,29.92,SW,225,4.4,4.6,50,0.00,BKN,,0.00,WeatherDisplay:10.37,2013-05-16 04:09:00,
2013-05-15 21:14:00,62.4,43.5,29.92,SW,225,4.4,4.4,50,0.00,BKN,,0.00,WeatherDisplay:10.37,2013-05-16 04:14:00,
2013-05-15 21:19:00,62.1,43.2,29.92,NE,45,4.1,4.6,50,0.00,BKN,,0.00,WeatherDisplay:10.37,2013-05-16 04:19:00,
2013-05-15 21:24:00,61.9,43.0,29.93,SSW,202,4.5,9.2,50,0.00,BKN,,0.00,WeatherDisplay:10.37,2013-05-16 04:24:00,
2013-05-15 21:29:00,61.7,42.9,29.93,WSW,248,4.9,10.4,50,0.00,BKN,,0.00,WeatherDisplay:10.37,2013-05-16 04:29:00,
2013-05-15 21:34:00,61.5,42.7,29.93,WSW,248,5.2,5.2,50,0.00,BKN,,0.00,WeatherDisplay:10.37,2013-05-16 04:34:00,
2013-05-15 21:39:00,61.2,42.9,29.93,WSW,248,6.0,10.4,51,0.00,BKN,,0.00,WeatherDisplay:10.37,2013-05-16 04:39:00,
2013-05-15 21:44:00,61.2,42.9,29.93,West,270,6.7,8.1,51,0.00,BKN,,0.00,WeatherDisplay:10.37,2013-05-16 04:44:00,
2013-05-15 21:49:00,60.8,42.5,29.93,West,270,7.4,9.2,51,0.00,BKN,,0.00,WeatherDisplay:10.37,2013-05-16 04:49:00,
2013-05-15 21:54:00,60.8,42.5,29.93,WSW,248,6.8,8.1,51,0.00,BKN,,0.00,WeatherDisplay:10.37,2013-05-16 04:54:00,
2013-05-15 21:59:00,60.4,42.2,29.93,West,270,5.9,9.2,51,0.00,BKN,,0.00,WeatherDisplay:10.37,2013-05-16 04:59:00,
2013-05-15 22:04:00,60.4,42.2,29.93,WSW,248,6.1,7.2,51,0.00,BKN,,0.00,WeatherDisplay:10.37,2013-05-16 05:04:00,
2013-05-15 22:09:00,60.3,42.6,29.94,WSW,248,6.1,9.2,52,0.00,BKN,,0.00,WeatherDisplay:10.37,2013-05-16 05:09:00,
2013-05-15 22:14:00,60.1,42.4,29.94,WSW,248,6.2,6.2,52,0.00,BKN,,0.00,WeatherDisplay:10.37,2013-05-16 05:14:00,
2013-05-15 22:19:00,59.9,42.2,29.94,SW,225,6.2,6.9,52,0.00,BKN,,0.00,WeatherDisplay:10.37,2013-05-16 05:19:00,
2013-05-15 22:24:00,59.9,42.7,29.94,SW,225,6.6,11.5,53,0.00,BKN,,0.00,WeatherDisplay:10.37,2013-05-16 05:24:00,
2013-05-15 22:29:00,59.9,42.7,29.94,WSW,248,6.2,8.1,53,0.00,BKN,,0.00,WeatherDisplay:10.37,2013-05-16 05:29:00,
2013-05-15 22:34:00,59.7,42.6,29.94,SW,225,6.6,7.5,53,0.00,BKN,,0.00,WeatherDisplay:10.37,2013-05-16 05:34:00,
2013-05-15 22:39:00,59.5,42.9,29.94,West,270,6.3,11.5,54,0.00,BKN,,0.00,WeatherDisplay:10.37,2013-05-16 05:39:00,
2013-05-15 22:44:00,59.5,42.9,29.94,WSW,248,6.0,8.1,54,0.00,BKN,,0.00,WeatherDisplay:10.37,2013-05-16 05:44:00,
2013-05-15 22:49:00,59.5,42.9,29.95,WSW,248,7.0,12.7,54,0.00,BKN,,0.00,WeatherDisplay:10.37,2013-05-16 05:49:00,
2013-05-15 22:54:00,59.4,42.7,29.95,SW,225,6.9,6.9,54,0.00,BKN,,0.00,WeatherDisplay:10.37,2013-05-16 05:54:00,
2013-05-15 22:59:00,59.0,42.4,29.95,West,270,6.6,7.2,54,0.00,BKN,,0.00,WeatherDisplay:10.37,2013-05-16 05:59:00,
2013-05-15 23:04:00,59.2,42.5,29.95,West,270,6.3,11.5,54,0.00,FEW,,0.00,WeatherDisplay:10.37,2013-05-16 06:04:00,
2013-05-15 23:09:00,58.6,42.0,29.94,SW,225,5.5,6.9,54,0.00,FEW,,0.00,WeatherDisplay:10.37,2013-05-16 06:09:00,
2013-05-15 23:14:00,58.6,42.0,29.94,SSW,202,4.7,4.7,54,0.00,FEW,,0.00,WeatherDisplay:10.37,2013-05-16 06:14:00,
2013-05-15 23:19:00,58.5,42.3,29.94,WSW,248,3.9,4.6,55,0.00,FEW,,0.00,WeatherDisplay:10.37,2013-05-16 06:19:00,
2013-05-15 23:24:00,58.1,42.0,29.94,WSW,248,3.8,3.9,55,0.00,FEW,,0.00,WeatherDisplay:10.37,2013-05-16 06:24:00,
2013-05-15 23:29:00,57.7,41.7,29.95,WSW,248,4.1,4.6,55,0.00,FEW,,0.00,WeatherDisplay:10.37,2013-05-16 06:29:00,
2013-05-15 23:34:00,57.6,41.5,29.95,WSW,248,4.7,5.8,55,0.00,FEW,,0.00,WeatherDisplay:10.37,2013-05-16 06:34:00,
2013-05-15 23:39:00,57.7,42.1,29.95,WSW,248,5.3,6.9,56,0.00,FEW,,0.00,WeatherDisplay:10.37,2013-05-16 06:39:00,
2013-05-15 23:44:00,57.7,42.1,29.95,WSW,248,5.6,7.1,56,0.00,FEW,,0.00,WeatherDisplay:10.37,2013-05-16 06:44:00,
2013-05-15 23:49:00,57.4,41.8,29.94,SSE,158,5.8,8.1,56,0.00,FEW,,0.00,WeatherDisplay:10.37,2013-05-16 06:49:00,
2013-05-15 23:54:00,57.4,41.8,29.94,SW,225,6.0,7.4,56,0.00,FEW,,0.00,WeatherDisplay:10.37,2013-05-16 06:54:00,
2013-05-15 23:59:00,57.2,42.1,29.94,WSW,248,6.0,8.2,57,0.00,FEW,,0.00,WeatherDisplay:10.37,2013-05-16 06:59:00,